Lafayette, IN

1:31 PM EST on January 16, 2018 (GMT -0500)
Purdue Univ

Weather History for KLAF - March, 2014

Change the Weather History Date:

Wednesday, March 5, 2014

  Actual Average Record
Temperature  
Mean Temperature 21 °F 36 °F  
Max Temperature 26 °F 45 °F 76 °F (1983)
Min Temperature 16 °F 28 °F -2 °F (1978)
Degree Days  
Heating Degree Days 44 28  
Month to date heating degree days 233 146  
Since 1 July heating degree days 5195 4480  
Cooling Degree Days 0 0  
Month to date cooling degree days 0 0  
Year to date cooling degree days 0 0  
Moisture  
Dew Point 14 °F    
Average Humidity 70    
Maximum Humidity 84    
Minimum Humidity 55    
Precipitation  
Precipitation T in 0.08 in 0.89 in (1973)
Month to date precipitation 0.18 0.41  
Year to date precipitation 3.52 4.03  
Sea Level Pressure  
Sea Level Pressure 30.35 in    
Wind  
Wind Speed 13 mph (ENE)    
Max Wind Speed 24 mph    
Max Gust Speed 31 mph    
Visibility 6 miles    
Events Snow    
T = Trace of Precipitation, MM = Missing Value Source: NWS Daily Summary

Daily Weather History Graph

Daily Weather History Graph

Search for Another Location

Airport or City:

Trip Planner

Search our weather history database for the weather conditions in past years. The results will help you decide how hot, cold, wet, or windy it might be!

Date:

Astronomy

Mar. 05, 2014 Rise Set
Actual Time 7:15 AM EST 6:43 PM EST
Civil Twilight 6:48 AM EST 7:11 PM EST
Nautical Twilight 6:16 AM EST 7:42 PM EST
Astronomical Twilight 5:44 AM EST 8:14 PM EST
Moon 9:39 AM EST (3/5) 11:52 PM EST (3/5)
Length of Visible Light 12h 22m
Length of Day
11h 28m
Waxing Crescent, 23% of the Moon is Illuminated
Mar 5
Waxing Crescent
Mar 8
First Quarter
Mar 16
Full
Mar 23
Last Quarter
Mar 30
New

Hourly Weather History & Observations

Time (EST) Temp. Windchill Dew Point Humidity Pressure Visibility Wind Dir Wind Speed Gust Speed Precip Events Conditions
12:54 AM 18.0 °F 7.7 °F 9.0 °F 68% 30.25 in 10.0 mi ENE 8.1 mph - N/A   Clear
1:54 AM 18.0 °F 9.8 °F 8.1 °F 65% 30.25 in 10.0 mi ENE 5.8 mph - N/A   Clear
2:54 AM 17.1 °F 8.7 °F 8.1 °F 68% 30.26 in 10.0 mi NE 5.8 mph - N/A   Clear
3:54 AM 17.1 °F 10.0 °F 8.1 °F 68% 30.26 in 10.0 mi ENE 4.6 mph - N/A   Clear
4:54 AM 16.0 °F 6.3 °F 8.1 °F 71% 30.27 in 10.0 mi ENE 6.9 mph - N/A   Scattered Clouds
5:54 AM 16.0 °F 6.3 °F 7.0 °F 68% 30.31 in 10.0 mi NNE 6.9 mph - N/A   Clear
6:54 AM 17.1 °F 5.0 °F 8.1 °F 68% 30.31 in 10.0 mi ENE 10.4 mph - N/A   Partly Cloudy
7:54 AM 18.0 °F 4.8 °F 8.1 °F 65% 30.34 in 9.0 mi ENE 12.7 mph - N/A   Partly Cloudy
8:54 AM 19.0 °F 6.1 °F 8.1 °F 62% 30.36 in 10.0 mi ENE 12.7 mph - N/A   Mostly Cloudy
9:54 AM 21.0 °F 8.1 °F 8.1 °F 57% 30.38 in 10.0 mi NE 13.8 mph - N/A   Mostly Cloudy
10:54 AM 23.0 °F 9.6 °F 10.0 °F 58% 30.38 in 10.0 mi ENE 16.1 mph - N/A   Partly Cloudy
11:54 AM 24.1 °F 11.5 °F 10.0 °F 55% 30.38 in 10.0 mi ENE 15.0 mph - N/A   Clear
12:54 PM 25.0 °F 13.6 °F 12.0 °F 58% 30.37 in 10.0 mi ENE 12.7 mph - N/A   Clear
1:54 PM 25.0 °F 13.1 °F 12.9 °F 60% 30.36 in 10.0 mi NE 13.8 mph - N/A   Overcast
2:54 PM 24.1 °F 11.5 °F 14.0 °F 65% 30.36 in 10.0 mi NE 15.0 mph - N/A   Overcast
3:37 PM 24.1 °F 11.0 °F 18.0 °F 77% 30.35 in 2.0 mi NE 16.1 mph - 0.00 in Snow Light Snow
3:54 PM 23.0 °F 11.1 °F 18.0 °F 81% 30.37 in 2.0 mi ENE 12.7 mph - 0.00 in Snow Light Snow
4:01 PM 23.0 °F 10.1 °F 19.0 °F 85% 30.34 in 1.8 mi ENE 15.0 mph - 0.00 in Snow Light Snow
4:28 PM 23.0 °F 9.6 °F 18.0 °F 81% 30.35 in 1.8 mi ENE 16.1 mph - 0.00 in Snow Light Snow
4:34 PM 23.0 °F 10.1 °F 18.0 °F 81% 30.35 in 2.5 mi ENE 15.0 mph - 0.00 in Snow Light Snow
4:54 PM 23.0 °F 11.1 °F 18.0 °F 81% 30.38 in 2.5 mi ENE 12.7 mph - 0.00 in Snow Light Snow
5:01 PM 23.0 °F 10.6 °F 19.0 °F 85% 30.36 in 1.0 mi ENE 13.8 mph - 0.00 in Snow Light Snow
5:13 PM 21.9 °F 9.2 °F 19.0 °F 89% 30.36 in 1.0 mi ENE 13.8 mph - 0.00 in Snow Light Snow
5:26 PM 21.9 °F 8.2 °F 19.0 °F 89% 30.36 in 1.5 mi NE 16.1 mph - 0.00 in Snow Light Snow
5:36 PM 21.9 °F 7.8 °F 18.0 °F 85% 30.36 in 1.2 mi ENE 17.3 mph - 0.00 in Snow Light Snow
5:54 PM 21.0 °F 5.4 °F 18.0 °F 88% 30.39 in 0.8 mi NE 20.7 mph 27.6 mph 0.00 in Snow Light Snow
6:14 PM 21.0 °F 5.4 °F 18.0 °F 88% 30.37 in 0.8 mi ENE 20.7 mph 26.5 mph 0.00 in Snow Light Snow
6:54 PM 21.0 °F 5.4 °F 17.1 °F 85% 30.40 in 0.8 mi ENE 20.7 mph 26.5 mph 0.00 in Snow Light Snow
7:01 PM 21.0 °F 6.2 °F 17.1 °F 85% 30.37 in 3.0 mi ENE 18.4 mph - 0.00 in Snow Light Snow
7:09 PM 21.0 °F 5.4 °F 16.0 °F 81% 30.37 in 2.0 mi ENE 20.7 mph 31.1 mph 0.00 in Snow Light Snow
7:54 PM 21.0 °F 6.6 °F 15.1 °F 78% 30.41 in 2.0 mi East 17.3 mph 23.0 mph 0.00 in   Haze
8:01 PM 21.0 °F 7.6 °F 15.1 °F 78% 30.38 in 10.0 mi East 15.0 mph 23.0 mph N/A   Overcast
8:54 PM 19.9 °F 4.3 °F 14.0 °F 78% 30.40 in 10.0 mi ENE 19.6 mph 27.6 mph N/A   Partly Cloudy
9:54 PM 19.9 °F 7.3 °F 12.9 °F 74% 30.41 in 10.0 mi ENE 12.7 mph - N/A   Mostly Cloudy
10:54 PM 19.9 °F 5.7 °F 12.0 °F 71% 30.41 in 10.0 mi ENE 16.1 mph - N/A   Clear
11:54 PM 19.9 °F 6.2 °F 12.9 °F 74% 30.40 in 10.0 mi East 15.0 mph - N/A   Clear